Вернуться в каталог

STARLINK-5561

АктивенСвязьSSO
NORAD 56337·PAYLOAD·🇺🇸 United States

Запущен Apr 27, 2023 с Vandenberg Space Force Base

Loading…

Ближайшие Пролёты (ближайшие 24 часа)

TLE

СвежийSource: CelesTrak SupGP

Эпоха: Sep 14, 2026, 20:57 UTC

1 56337C 23058W   26257.87340278  .00685410  00000+0  39446-1 0  2570
2 56337  97.2849 252.0035 0001755  83.9684 226.4448 15.12186547    19

Отслеживайте STARLINK-5561 в реальном времени с AllMySat

Download on the App Store